Wind_Speed
39 43 47 49 51 55 58 61 61 57 41 44 51 49 51 48 43 35 26 23 24 22 15 14 23 34 45 51 28 24 21 33 51 67 68 63 65 66 64 62 59 56 54 52 49 47 45
39 42 44 48 48 51 54 57 59 57 48 42 45 52 43 48 33 27 26 18 29 38 27 25 36 49 39 32 23 22 18 31 56 64 65 59 59 63 63 61 60 56 52 50 49 46 45
40 42 44 46 46 48 51 53 56 57 55 45 43 45 49 40 36 29 28 45 35 28 24 23 29 22 26 29 20 20 20 39 53 53 61 55 51 53 55 55 54 52 50 49 48 46 45
40 42 42 45 45 45 48 50 53 55 54 51 45 42 40 44 36 30 30 27 40 40 39 25 31 31 20 50 22 19 16 44 47 44 49 47 47 45 49 52 52 51 50 48 48 47 46
40 42 42 42 45 44 44 47 50 53 53 51 50 46 40 40 38 32 32 30 32 39 36 38 29 25 31 28 22 20 19 42 40 42 43 40 40 41 42 44 45 46 47 48 46 46 45
39 41 41 41 43 43 42 44 46 50 52 51 50 49 46 38 35 33 31 23 27 29 30 26 25 25 29 25 26 24 27 32 40 37 37 36 36 36 37 38 40 43 45 43 43 43 43
35 38 39 40 41 42 41 42 44 45 49 51 50 47 47 43 37 29 35 33 21 22 24 28 25 21 20 24 25 34 38 37 38 43 37 34 33 34 33 33 34 33 33 35 34 35 35
33 34 37 37 38 40 40 40 41 43 44 47 49 47 45 45 39 34 29 29 28 19 19 24 23 21 20 22 29 34 38 37 38 39 38 34 30 30 29 28 28 28 27 27 27 28 28
29 32 33 36 36 37 38 40 39 39 42 42 45 47 45 43 43 34 27 23 27 26 19 21 20 17 18 19 25 29 33 36 37 37 37 35 33 32 30 29 27 27 26 25 27 27 28
27 28 30 33 34 34 36 37 37 38 38 40 41 43 45 44 41 39 28 22 21 21 27 26 22 20 15 22 19 25 29 29 32 34 35 34 32 32 32 31 30 29 28 27 28 28 29
26 25 26 29 31 32 33 35 35 35 36 37 38 39 40 42 41 38 35 25 19 17 25 24 25 22 22 17 22 20 24 29 30 31 32 31 33 32 31 31 31 29 30 30 29 30 30
24 25 24 26 28 29 30 31 32 34 35 34 34 35 37 38 39 37 34 29 25 22 21 24 22 22 21 20 19 23 20 23 27 29 29 29 29 29 29 29 28 29 29 30 31 33 34
22 23 22 23 25 27 27 27 29 31 32 33 32 32 33 34 34 36 34 28 23 23 21 20 21 17 19 20 19 16 19 22 20 23 27 27 27 27 26 25 24 23 23 25 25 26 27
22 21 21 21 22 24 25 25 24 26 29 30 31 31 30 30 31 32 34 30 27 26 23 21 19 16 19 22 21 19 15 12 18 20 20 24 25 26 25 25 24 25 24 26 27 24 23
21 22 21 20 20 22 23 23 23 23 25 27 28 29 29 28 27 28 30 28 30 27 24 23 23 23 21 20 20 20 19 19 14 14 20 24 24 25 26 28 27 27 26 26 26 26 24
22 21 22 20 20 21 22 22 23 22 21 23 25 27 26 27 27 25 26 23 25 27 25 21 18 18 17 16 16 17 18 19 18 16 16 19 20 21 21 21 21 23 24 23 23 23 21
21 23 20 20 19 18 19 21 21 22 22 20 22 23 25 25 26 26 23 21 21 20 21 22 20 17 14 12 13 14 15 15 15 15 14 15 17 17 18 19 19 21 22 20 21 19 17
21 22 23 21 19 18 18 19 20 21 22 22 22 21 22 23 23 23 23 20 19 17 16 15 16 18 18 16 13 11 10 11 11 11 11 12 14 14 13 14 14 16 16 17 18 15 13
24 23 23 24 23 21 20 19 19 20 21 22 21 22 20 19 20 20 20 19 18 17 14 12 10 9 10 11 12 12 12 10 9 10 11 12 13 11 11 11 10 11 11 12 13 13 13
26 25 25 24 25 26 23 22 20 20 20 21 22 21 21 20 19 19 19 18 16 16 15 14 10 8 5 3 3 4 5 5 5 4 4 5 8 8 9 10 11 12 15 17 18 16 21
29 29 28 28 26 26 26 24 23 22 22 22 23 23 23 21 21 20 20 19 17 14 14 13 13 11 10 8 6 3 3 4 4 5 6 8 9 10 12 13 14 17 19 21 20 21 24
32 31 31 30 29 28 28 26 24 25 26 25 25 25 26 24 22 22 21 21 19 18 17 14 14 14 12 12 12 11 10 9 10 10 11 12 12 14 15 17 18 18 22 22 22 22 21
35 34 33 34 32 32 31 29 28 27 27 28 29 30 29 28 25 23 20 22 23 22 20 19 17 15 16 16 14 14 15 16 15 16 16 16 19 19 16 23 20 18 23 25 27 26 26
36 38 37 36 37 36 36 36 33 31 32 31 30 30 30 29 28 27 24 21 22 24 24 23 23 21 19 20 19 19 20 19 20 21 21 21 23 22 20 25 25 26 27 27 28 28 29
38 37 38 38 39 38 37 36 35 34 32 32 31 30 30 30 28 29 28 25 23 24 25 26 26 27 26 24 23 24 24 25 26 24 25 27 28 27 27 29 30 30 32 34 33 34 35
45 41 41 41 38 38 38 37 37 35 33 34 33 30 31 30 29 27 28 29 29 28 27 28 29 30 31 31 29 28 30 29 31 31 30 31 32 31 31 33 33 34 37 38 39 41 37
50 47 45 45 41 37 38 38 40 39 40 37 35 33 32 32 32 32 31 31 31 33 33 33 33 33 34 33 32 32 36 38 41 37 34 36 38 38 39 40 37 37 40 43 43 44 43
54 54 51 49 48 47 43 41 41 40 40 39 36 35 35 36 37 36 36 37 38 40 41 39 37 35 36 35 36 35 37 38 42 44 41 44 43 43 46 45 43 43 44 46 48 48 47
56 57 57 56 53 52 49 45 45 44 43 43 42 41 40 40 39 38 40 42 42 43 43 43 43 40 39 38 37 38 37 38 40 42 44 48 48 49 49 46 48 52 52 53 52 49 48
Wind_Direction
21 18 18 17 16 19 20 20 21 20 15 14 29 25 27 39 41 42 42 38 59 66 80 106 132 147 159 153 188 175 188 178 182 187 189 187 188 191 197 199 204 207 209 211 213 216 218
20 21 19 19 17 20 22 19 22 25 23 19 22 30 33 32 45 44 44 53 69 55 80 99 132 133 145 166 140 162 165 173 172 179 185 184 185 190 196 199 202 207 210 213 217 220 222
18 20 20 19 19 20 22 23 22 25 29 25 21 31 30 34 36 34 51 53 50 49 59 100 109 127 124 154 144 102 155 164 167 171 178 182 182 189 191 198 202 206 211 215 219 223 228
16 18 21 19 19 21 22 23 25 25 27 31 27 21 22 30 36 32 32 37 65 71 73 114 107 136 121 154 157 139 148 157 160 167 174 178 179 187 193 196 200 205 211 216 221 225 229
14 16 18 21 19 20 22 23 26 27 26 30 31 29 24 29 31 36 28 28 58 66 79 85 98 125 156 168 166 139 148 151 154 161 167 172 179 184 189 195 201 206 212 217 223 228 233
12 13 15 18 21 19 22 22 24 27 27 28 31 32 30 27 26 34 37 36 43 59 72 79 97 110 144 154 173 163 154 156 150 158 162 168 175 184 189 194 202 208 214 219 227 232 238
12 10 13 15 18 21 20 22 22 24 28 27 29 33 34 31 28 30 36 34 44 46 63 74 83 85 118 146 158 163 157 156 159 160 161 170 173 181 190 195 201 203 209 216 222 227 233
7 8 7 14 16 19 21 20 23 23 25 28 28 30 32 34 35 33 39 35 49 55 65 73 81 87 97 144 156 159 155 155 159 162 166 176 176 184 188 193 199 205 210 216 222 227 231
6 4 5 9 12 16 20 21 20 23 22 26 28 29 30 33 35 38 41 49 50 55 63 73 69 83 105 122 154 159 161 158 162 162 166 173 179 185 192 198 204 210 214 218 224 230 233
357 1 3 4 10 12 15 23 21 20 24 22 27 29 30 32 37 39 42 45 57 62 63 65 71 79 104 122 133 162 165 165 165 162 170 175 180 187 192 198 204 211 216 221 227 231 235
344 356 357 1 5 9 12 16 23 20 21 25 22 27 32 32 35 42 43 49 61 64 65 70 71 76 89 118 130 144 169 169 168 171 171 177 181 187 194 199 205 210 216 221 227 232 237
335 343 353 357 358 6 7 14 17 21 20 23 25 23 29 34 35 41 47 55 63 66 72 75 76 76 82 94 124 139 152 178 176 173 176 180 184 187 192 197 204 210 217 223 229 236 241
326 333 344 350 354 357 2 7 12 18 21 21 25 24 24 31 36 39 45 51 63 64 63 68 75 76 80 85 97 118 150 159 172 177 181 184 188 190 194 198 205 210 215 223 233 241 244
316 324 331 343 346 349 354 0 6 10 17 21 24 24 26 27 31 38 44 43 52 64 65 65 69 83 83 82 89 96 108 139 165 173 184 192 195 195 198 204 208 213 223 233 240 245 258
310 314 320 330 338 341 346 352 359 4 6 14 21 24 26 27 27 31 45 41 45 52 62 68 76 81 88 92 97 98 102 114 125 166 184 188 199 206 212 215 219 226 233 238 245 252 256
304 306 313 321 328 334 339 346 350 356 360 2 9 19 20 26 29 29 35 37 48 50 55 61 72 83 91 94 99 105 103 107 114 128 154 176 189 198 207 218 227 230 234 239 247 250 257
299 302 306 313 317 327 334 340 343 347 350 354 356 6 10 17 23 25 27 28 37 50 53 58 61 66 72 82 93 100 106 113 116 118 127 145 167 175 188 196 209 216 224 233 239 247 255
287 294 299 303 307 313 323 331 335 339 339 341 347 349 356 5 11 21 20 21 25 29 42 52 60 66 67 68 72 80 105 121 130 135 140 147 159 169 181 193 205 215 227 239 241 236 236
277 282 289 295 299 302 310 317 324 329 331 331 335 338 341 344 351 0 12 14 17 18 18 24 38 54 69 79 79 82 85 90 106 124 141 152 159 167 165 173 182 195 204 214 224 234 247
276 272 279 283 290 295 299 305 310 315 319 321 323 325 326 326 327 336 348 359 6 7 8 3 358 357 13 36 93 105 111 115 115 126 150 166 175 181 190 201 210 223 226 231 234 240 247
274 275 273 276 280 285 292 297 301 304 308 312 315 314 314 317 316 315 320 331 341 349 352 349 346 338 330 321 307 283 250 250 231 230 243 242 244 246 243 238 233 239 246 249 252 253 254
269 269 272 272 274 278 282 286 290 296 299 301 304 307 306 304 305 308 304 306 313 323 331 330 329 325 319 311 305 296 281 265 258 255 251 250 251 251 256 258 252 251 259 261 261 267 269
264 266 271 272 272 278 281 284 288 289 292 299 301 300 300 297 295 295 297 296 298 300 304 312 313 307 304 299 297 291 287 280 272 270 264 260 259 259 257 263 264 252 255 259 267 270 270
265 267 268 268 272 276 279 281 283 288 288 291 290 292 290 289 290 287 286 286 286 294 295 295 296 298 293 288 286 286 286 280 277 273 269 267 267 266 262 263 267 270 272 273 274 275 275
264 266 267 268 270 274 279 281 281 285 285 292 292 287 286 284 285 285 282 280 279 282 288 292 289 289 290 285 280 279 276 277 279 277 274 272 270 269 269 268 272 272 273 276 276 275 277
262 264 265 264 267 270 273 277 282 280 280 282 288 284 286 284 282 279 278 277 283 287 290 292 293 291 288 289 284 275 276 275 272 271 271 272 272 272 273 270 268 272 272 273 273 275 279
260 262 263 261 260 264 267 274 276 283 284 279 279 278 277 277 282 284 280 277 278 283 285 288 290 292 292 290 285 279 276 277 274 273 269 269 270 272 273 271 269 268 268 268 271 276 280
256 260 261 258 258 265 265 269 271 278 283 280 275 274 274 277 277 277 278 278 279 283 285 285 286 290 289 286 283 278 272 273 279 269 267 269 271 271 270 271 271 272 272 272 274 276 279
254 258 259 260 261 262 261 262 268 270 275 277 274 275 273 275 277 280 280 281 284 280 282 286 286 287 291 290 287 281 276 275 275 274 273 271 269 268 270 274 276 277 277 277 278 280 281
Height
5787 5779 5770 5761 5753 5742 5733 5722 5711 5699 5689 5680 5669 5654 5640 5629 5618 5609 5603 5597 5589 5581 5580 5578 5580 5586 5593 5608 5619 5629 5636 5639 5649 5666 5682 5695 5708 5721 5734 5747 5758 5768 5777 5785 5792 5797 5803
5787 5781 5772 5764 5755 5746 5737 5726 5715 5704 5693 5684 5675 5664 5650 5640 5629 5619 5613 5608 5602 5595 5593 5593 5594 5601 5611 5620 5626 5631 5636 5641 5648 5666 5681 5694 5706 5717 5732 5743 5754 5765 5773 5781 5788 5794 5799
5788 5783 5774 5767 5759 5749 5740 5731 5720 5709 5698 5689 5680 5671 5660 5649 5640 5631 5626 5619 5611 5609 5607 5607 5609 5613 5619 5625 5630 5637 5641 5645 5657 5668 5678 5695 5709 5722 5732 5743 5753 5763 5771 5778 5784 5791 5797
5790 5784 5778 5769 5762 5754 5744 5735 5726 5715 5705 5695 5686 5677 5669 5660 5649 5640 5635 5634 5627 5622 5619 5620 5619 5624 5628 5635 5643 5647 5649 5654 5665 5677 5688 5699 5710 5723 5734 5743 5750 5759 5767 5775 5782 5787 5793
5792 5785 5781 5773 5765 5758 5748 5740 5731 5721 5711 5702 5693 5684 5675 5668 5661 5651 5643 5639 5638 5637 5632 5631 5632 5634 5637 5642 5649 5652 5657 5663 5672 5681 5691 5703 5714 5724 5733 5742 5750 5758 5766 5773 5779 5785 5790
5795 5788 5782 5776 5768 5761 5753 5744 5736 5727 5717 5708 5700 5691 5683 5674 5668 5661 5655 5649 5647 5646 5644 5643 5644 5646 5646 5649 5652 5657 5665 5670 5678 5687 5697 5707 5716 5726 5734 5741 5750 5757 5765 5771 5777 5784 5787
5798 5791 5784 5777 5772 5765 5757 5750 5741 5732 5724 5715 5706 5698 5691 5683 5675 5669 5661 5657 5656 5655 5653 5652 5651 5653 5654 5656 5658 5663 5669 5674 5682 5690 5701 5710 5717 5725 5735 5743 5751 5756 5762 5768 5774 5779 5784
5800 5794 5787 5781 5774 5768 5761 5754 5747 5739 5730 5722 5714 5706 5699 5692 5684 5677 5673 5669 5664 5664 5663 5660 5661 5661 5662 5664 5666 5669 5675 5681 5687 5694 5703 5715 5722 5730 5736 5744 5750 5756 5762 5767 5773 5777 5781
5802 5796 5790 5784 5777 5771 5766 5758 5752 5745 5737 5729 5721 5714 5707 5700 5692 5686 5682 5678 5675 5671 5671 5668 5667 5668 5668 5671 5675 5678 5683 5685 5691 5697 5704 5714 5723 5729 5737 5744 5750 5756 5761 5766 5771 5774 5778
5803 5798 5792 5787 5781 5774 5768 5763 5756 5749 5743 5736 5729 5722 5714 5708 5702 5695 5690 5686 5684 5682 5679 5677 5675 5674 5675 5675 5680 5685 5688 5694 5697 5701 5708 5716 5723 5730 5737 5743 5750 5755 5760 5764 5768 5772 5775
5804 5799 5794 5790 5784 5779 5772 5766 5760 5755 5749 5742 5737 5730 5723 5715 5710 5703 5699 5694 5692 5691 5687 5688 5684 5682 5681 5683 5684 5688 5694 5698 5702 5706 5713 5720 5724 5730 5737 5743 5748 5754 5758 5762 5765 5768 5771
5804 5799 5795 5791 5787 5782 5777 5771 5764 5759 5753 5748 5743 5737 5730 5725 5719 5713 5708 5704 5701 5700 5696 5694 5693 5690 5689 5688 5690 5692 5697 5703 5706 5710 5715 5720 5725 5731 5736 5741 5747 5751 5755 5759 5761 5763 5766
5802 5800 5795 5791 5787 5783 5779 5775 5769 5763 5758 5753 5748 5743 5738 5732 5727 5722 5716 5714 5711 5706 5705 5704 5701 5699 5697 5697 5697 5699 5702 5705 5710 5713 5716 5721 5726 5731 5736 5740 5745 5749 5753 5756 5759 5761 5762
5801 5799 5796 5792 5787 5784 5780 5776 5772 5767 5763 5758 5753 5748 5744 5739 5735 5730 5724 5722 5718 5713 5710 5709 5707 5705 5706 5706 5705 5705 5706 5708 5710 5714 5718 5722 5728 5731 5735 5739 5743 5747 5750 5753 5756 5758 5759
5799 5797 5795 5792 5788 5784 5780 5777 5773 5769 5766 5762 5758 5753 5749 5745 5741 5737 5733 5730 5724 5720 5718 5716 5714 5713 5712 5712 5712 5712 5712 5712 5714 5716 5720 5723 5727 5731 5735 5738 5743 5746 5749 5752 5753 5754 5755
5797 5794 5792 5790 5788 5785 5781 5778 5774 5770 5767 5764 5761 5757 5754 5749 5746 5743 5740 5737 5732 5729 5725 5723 5722 5720 5719 5718 5718 5717 5717 5718 5718 5720 5721 5724 5728 5731 5735 5738 5742 5744 5747 5749 5750 5751 5751
5794 5792 5790 5788 5786 5784 5781 5778 5775 5772 5768 5766 5763 5760 5757 5753 5750 5748 5745 5743 5739 5736 5733 5731 5728 5726 5725 5724 5723 5722 5723 5724 5724 5725 5725 5727 5729 5732 5734 5736 5738 5741 5743 5744 5746 5746 5746
5790 5789 5787 5785 5784 5782 5780 5778 5775 5772 5769 5766 5763 5762 5759 5756 5755 5751 5749 5746 5743 5741 5739 5737 5735 5733 5731 5729 5728 5727 5726 5725 5726 5727 5729 5731 5732 5733 5735 5736 5738 5740 5741 5742 5742 5744 5743
5785 5784 5784 5782 5781 5779 5778 5776 5774 5772 5769 5767 5764 5762 5760 5758 5756 5754 5751 5749 5746 5744 5742 5741 5739 5737 5735 5734 5733 5732 5732 5732 5731 5730 5730 5730 5732 5733 5734 5737 5737 5738 5739 5739 5739 5740 5741
5779 5779 5778 5778 5777 5775 5774 5773 5772 5770 5768 5766 5764 5762 5759 5757 5755 5754 5751 5750 5748 5746 5745 5743 5742 5740 5738 5737 5736 5735 5734 5734 5734 5734 5733 5732 5731 5732 5733 5733 5734 5734 5735 5735 5734 5736 5735
5772 5773 5772 5771 5771 5771 5770 5769 5768 5767 5765 5764 5761 5759 5757 5755 5754 5752 5751 5749 5748 5746 5745 5744 5743 5741 5740 5739 5737 5736 5735 5735 5734 5734 5734 5734 5733 5734 5733 5732 5731 5730 5730 5730 5731 5732 5730
5765 5765 5765 5765 5763 5764 5764 5763 5762 5762 5761 5760 5757 5756 5754 5752 5750 5749 5748 5747 5746 5744 5743 5742 5741 5741 5740 5738 5737 5736 5735 5734 5733 5732 5731 5730 5730 5729 5729 5728 5728 5727 5725 5724 5725 5725 5725
5757 5758 5758 5759 5758 5757 5758 5757 5757 5756 5754 5753 5752 5750 5749 5748 5747 5745 5744 5744 5742 5742 5741 5739 5738 5737 5736 5736 5735 5734 5733 5732 5731 5730 5729 5728 5726 5725 5725 5721 5721 5722 5719 5719 5719 5720 5718
5747 5749 5749 5750 5750 5750 5750 5751 5750 5749 5749 5748 5746 5745 5744 5742 5741 5741 5739 5738 5737 5736 5736 5735 5734 5733 5733 5731 5730 5730 5729 5728 5728 5727 5725 5724 5722 5721 5722 5718 5716 5715 5714 5713 5712 5711 5709
5737 5738 5740 5741 5742 5742 5742 5742 5742 5742 5741 5740 5739 5738 5737 5735 5734 5734 5734 5733 5731 5730 5729 5728 5728 5727 5726 5725 5725 5724 5723 5723 5722 5722 5720 5718 5716 5715 5714 5712 5711 5708 5707 5705 5704 5703 5701
5726 5728 5729 5731 5733 5734 5734 5733 5733 5733 5733 5732 5731 5731 5730 5730 5729 5726 5726 5726 5725 5724 5723 5722 5721 5720 5719 5718 5717 5717 5715 5715 5714 5714 5713 5710 5709 5709 5707 5704 5704 5703 5699 5697 5694 5691 5693
5713 5716 5717 5719 5722 5723 5725 5726 5726 5724 5723 5723 5723 5722 5722 5722 5721 5721 5719 5718 5717 5716 5715 5715 5713 5713 5711 5710 5709 5709 5709 5707 5705 5705 5705 5701 5699 5698 5695 5693 5694 5692 5689 5687 5687 5686 5682
5698 5701 5704 5706 5708 5712 5713 5714 5715 5715 5714 5713 5712 5712 5713 5713 5712 5712 5711 5710 5709 5707 5705 5705 5705 5703 5701 5699 5698 5697 5696 5696 5694 5693 5692 5691 5688 5687 5683 5681 5683 5680 5679 5677 5674 5672 5671
5683 5687 5689 5692 5694 5696 5699 5700 5702 5703 5703 5703 5703 5702 5702 5702 5702 5702 5701 5699 5698 5696 5695 5693 5693 5692 5690 5689 5688 5685 5685 5682 5682 5681 5681 5679 5678 5674 5673 5674 5670 5666 5664 5662 5661 5660 5658